CRV4L EGNX-EGLF

Flight info

Callsign CRV4L
Flight time 0h 31m
Altitude 19000
Route SAPCO Y53 DTY M605 SILVA M183 CPT
Aircraft A20N/M-SDE2E3FGHIRWXY/LB1

Departure

Time 2026-05-07 18:28
Airport East Midlands Airport (EGNX)

Arrival

Time 2026-05-07 18:59
Airport Farnborough Airport (EGLF)
Time Latitude Longitude Altitude Speed Heading
2026-05-07 17:44 52.82724 -1.33005 292 ft 0 kts 180°
2026-05-07 18:18 52.82737 -1.33005 292 ft 2 kts 179°
2026-05-07 18:18 52.82751 -1.33005 293 ft 2 kts 180°
2026-05-07 18:18 52.82766 -1.33006 293 ft 2 kts 179°
2026-05-07 18:19 52.82781 -1.32999 293 ft 2 kts 216°
2026-05-07 18:19 52.82791 -1.32981 293 ft 2 kts 245°
2026-05-07 18:19 52.82794 -1.32964 293 ft 0 kts 266°
2026-05-07 18:19 52.82794 -1.32951 293 ft 0 kts 270°
2026-05-07 18:22 52.82794 -1.32958 293 ft 1 kts 270°
2026-05-07 18:22 52.82794 -1.32974 293 ft 3 kts 270°
2026-05-07 18:23 52.82793 -1.33055 294 ft 9 kts 268°
2026-05-07 18:23 52.82802 -1.33150 296 ft 7 kts 323°
2026-05-07 18:23 52.82850 -1.33163 298 ft 7 kts
2026-05-07 18:23 52.82922 -1.33215 300 ft 11 kts 280°
2026-05-07 18:24 52.82922 -1.33317 302 ft 15 kts 269°
2026-05-07 18:24 52.82917 -1.33609 306 ft 21 kts 268°
2026-05-07 18:24 52.82914 -1.33769 305 ft 21 kts 269°
2026-05-07 18:24 52.82909 -1.34016 305 ft 21 kts 268°
2026-05-07 18:25 52.82906 -1.34256 307 ft 20 kts 271°
2026-05-07 18:25 52.82907 -1.34484 309 ft 19 kts 269°
2026-05-07 18:25 52.82918 -1.34646 312 ft 10 kts 323°
2026-05-07 18:25 52.82988 -1.34664 313 ft 10 kts 359°
2026-05-07 18:26 52.83059 -1.34656 314 ft 9 kts 35°
2026-05-07 18:26 52.83068 -1.34577 312 ft 0 kts 89°
2026-05-07 18:26 52.83068 -1.34576 312 ft 0 kts 89°
2026-05-07 18:27 52.83069 -1.34507 312 ft 26 kts 89°
2026-05-07 18:27 52.83090 -1.33330 306 ft 123 kts 88°
2026-05-07 18:27 52.83111 -1.32221 333 ft 158 kts 89°
2026-05-07 18:28 52.83141 -1.30370 954 ft 163 kts 90°
2026-05-07 18:28 52.83081 -1.28557 1772 ft 160 kts 99°
2026-05-07 18:28 52.82943 -1.26729 2374 ft 169 kts 100°
2026-05-07 18:28 52.82769 -1.24764 2863 ft 183 kts 102°
2026-05-07 18:29 52.82319 -1.22669 3295 ft 203 kts 124°
2026-05-07 18:29 52.81361 -1.20907 3893 ft 217 kts 138°
2026-05-07 18:29 52.80290 -1.19017 4464 ft 235 kts 129°
2026-05-07 18:29 52.78714 -1.16325 5194 ft 258 kts 153°
2026-05-07 18:30 52.77572 -1.15677 5654 ft 265 kts 172°
2026-05-07 18:30 52.75748 -1.15613 6510 ft 269 kts 192°
2026-05-07 18:30 52.74040 -1.16818 7443 ft 271 kts 213°
2026-05-07 18:30 52.72530 -1.18641 8420 ft 273 kts 218°
2026-05-07 18:31 52.71067 -1.20593 9327 ft 276 kts 219°
2026-05-07 18:31 52.69579 -1.22587 10240 ft 279 kts 219°
2026-05-07 18:31 52.68048 -1.24615 10928 ft 291 kts 218°
2026-05-07 18:31 52.66426 -1.26739 11396 ft 309 kts 218°
2026-05-07 18:32 52.64704 -1.28980 11792 ft 327 kts 218°
2026-05-07 18:32 52.62881 -1.31348 12161 ft 345 kts 218°
2026-05-07 18:32 52.60980 -1.33813 12780 ft 355 kts 218°
2026-05-07 18:32 52.58984 -1.36226 13564 ft 358 kts 213°
2026-05-07 18:33 52.56818 -1.38281 14286 ft 361 kts 204°
2026-05-07 18:33 52.54395 -1.39322 15016 ft 366 kts 185°
2026-05-07 18:33 52.51884 -1.38920 15748 ft 372 kts 165°
2026-05-07 18:33 52.48849 -1.36203 16625 ft 382 kts 141°
2026-05-07 18:34 52.47523 -1.34241 17094 ft 385 kts 140°
2026-05-07 18:34 52.45436 -1.31528 17726 ft 389 kts 147°
2026-05-07 18:34 52.43155 -1.29165 18351 ft 392 kts 152°
2026-05-07 18:34 52.40742 -1.27077 18834 ft 396 kts 155°
2026-05-07 18:35 52.38224 -1.25143 18999 ft 397 kts 158°
2026-05-07 18:35 52.35709 -1.23342 19010 ft 397 kts 159°
2026-05-07 18:35 52.33174 -1.21592 19013 ft 396 kts 159°
2026-05-07 18:35 52.30637 -1.19868 19008 ft 396 kts 159°
2026-05-07 18:36 52.28096 -1.18155 19006 ft 396 kts 159°
2026-05-07 18:36 52.25558 -1.16450 19005 ft 396 kts 159°
2026-05-07 18:36 52.23018 -1.14746 19005 ft 396 kts 159°
2026-05-07 18:36 52.20439 -1.13058 19003 ft 396 kts 161°
2026-05-07 18:37 52.17870 -1.11645 19003 ft 395 kts 165°
2026-05-07 18:37 52.15199 -1.10488 19008 ft 395 kts 168°
2026-05-07 18:37 52.12530 -1.09589 18993 ft 394 kts 170°
2026-05-07 18:37 52.09865 -1.08718 19000 ft 394 kts 170°
2026-05-07 18:38 52.07155 -1.07832 18930 ft 395 kts 170°
2026-05-07 18:38 52.04469 -1.06954 18671 ft 393 kts 170°
2026-05-07 18:38 52.01832 -1.06093 18392 ft 391 kts 170°
2026-05-07 18:38 51.99158 -1.05221 18103 ft 389 kts 170°
2026-05-07 18:39 51.96519 -1.04361 17844 ft 387 kts 170°
2026-05-07 18:39 51.93881 -1.03504 17594 ft 386 kts 170°
2026-05-07 18:39 51.91269 -1.02656 17350 ft 384 kts 170°
2026-05-07 18:39 51.87809 -1.01543 16926 ft 381 kts 171°
2026-05-07 18:40 51.86046 -1.01236 16684 ft 379 kts 180°
2026-05-07 18:40 51.83463 -1.01575 16259 ft 374 kts 192°
2026-05-07 18:40 51.80957 -1.02771 15775 ft 371 kts 200°
2026-05-07 18:40 51.78575 -1.04210 15254 ft 368 kts 201°
2026-05-07 18:41 51.76185 -1.05684 14720 ft 365 kts 201°
2026-05-07 18:41 51.73838 -1.07125 14193 ft 363 kts 201°
2026-05-07 18:41 51.71502 -1.08549 13664 ft 360 kts 201°
2026-05-07 18:41 51.69181 -1.09956 13137 ft 358 kts 201°
2026-05-07 18:42 51.66872 -1.11350 12605 ft 355 kts 201°
2026-05-07 18:42 51.64556 -1.12744 12067 ft 353 kts 201°
2026-05-07 18:42 51.62254 -1.14128 11527 ft 351 kts 201°
2026-05-07 18:42 51.59985 -1.15491 11128 ft 344 kts 201°
2026-05-07 18:43 51.57783 -1.16810 10906 ft 332 kts 201°
2026-05-07 18:43 51.55666 -1.18078 10732 ft 319 kts 201°
2026-05-07 18:43 51.53630 -1.19295 10555 ft 307 kts 201°
2026-05-07 18:43 51.51047 -1.20837 10343 ft 292 kts 200°
2026-05-07 18:44 51.49747 -1.21386 10215 ft 286 kts 186°
2026-05-07 18:44 51.47824 -1.21012 9949 ft 283 kts 160°
2026-05-07 18:44 51.46048 -1.19668 9591 ft 282 kts 154°
2026-05-07 18:44 51.44312 -1.18247 9235 ft 280 kts 154°
2026-05-07 18:45 51.42565 -1.16833 8885 ft 279 kts 154°
2026-05-07 18:45 51.40844 -1.15461 8582 ft 275 kts 154°
2026-05-07 18:45 51.39194 -1.14156 8492 ft 257 kts 154°
2026-05-07 18:45 51.37604 -1.12904 8390 ft 250 kts 154°
2026-05-07 18:46 51.36077 -1.11706 8301 ft 238 kts 154°
2026-05-07 18:46 51.34700 -1.10283 8208 ft 238 kts 136°
2026-05-07 18:46 51.33663 -1.08261 8037 ft 237 kts 125°
2026-05-07 18:46 51.32741 -1.06070 7814 ft 241 kts 123°
2026-05-07 18:47 51.31812 -1.03831 7429 ft 244 kts 123°
2026-05-07 18:47 51.30862 -1.01570 7103 ft 243 kts 123°
2026-05-07 18:47 51.29914 -0.99340 6814 ft 241 kts 123°
2026-05-07 18:47 51.28658 -0.96410 6442 ft 238 kts 123°
2026-05-07 18:48 51.28044 -0.94980 6264 ft 236 kts 123°
2026-05-07 18:48 51.27121 -0.92835 5994 ft 234 kts 123°
2026-05-07 18:48 51.26200 -0.90697 5725 ft 231 kts 123°
2026-05-07 18:48 51.25293 -0.88590 5457 ft 229 kts 123°
2026-05-07 18:49 51.24404 -0.86531 5194 ft 226 kts 123°
2026-05-07 18:49 51.23637 -0.84367 4988 ft 220 kts 111°
2026-05-07 18:49 51.23180 -0.82109 4974 ft 208 kts 105°
2026-05-07 18:49 51.22821 -0.79961 4961 ft 195 kts 104°
2026-05-07 18:50 51.22481 -0.77882 4759 ft 191 kts 104°
2026-05-07 18:50 51.22146 -0.75853 4548 ft 188 kts 104°
2026-05-07 18:50 51.21810 -0.73840 4304 ft 187 kts 105°
2026-05-07 18:50 51.21445 -0.71900 4071 ft 185 kts 116°
2026-05-07 18:51 51.20565 -0.70447 3807 ft 185 kts 157°
2026-05-07 18:51 51.19309 -0.70250 3617 ft 188 kts 191°
2026-05-07 18:51 51.18050 -0.70864 3432 ft 188 kts 199°
2026-05-07 18:51 51.16834 -0.71631 3231 ft 187 kts 200°
2026-05-07 18:52 51.15640 -0.72417 3038 ft 186 kts 200°
2026-05-07 18:52 51.14444 -0.73213 2985 ft 186 kts 200°
2026-05-07 18:52 51.13255 -0.74008 2984 ft 186 kts 201°
2026-05-07 18:52 51.12098 -0.74889 3048 ft 188 kts 213°
2026-05-07 18:53 51.11356 -0.76585 2993 ft 192 kts 253°
2026-05-07 18:53 51.11462 -0.78706 2985 ft 194 kts 291°
2026-05-07 18:53 51.12071 -0.80624 2989 ft 195 kts 299°
2026-05-07 18:53 51.12751 -0.82480 2981 ft 195 kts 301°
2026-05-07 18:54 51.13441 -0.84327 2978 ft 195 kts 301°
2026-05-07 18:54 51.14136 -0.86188 2976 ft 195 kts 301°
2026-05-07 18:54 51.14826 -0.88033 2976 ft 195 kts 301°
2026-05-07 18:54 51.15525 -0.89892 2975 ft 195 kts 301°
2026-05-07 18:55 51.16218 -0.91731 2975 ft 195 kts 301°
2026-05-07 18:55 51.16914 -0.93575 2975 ft 195 kts 301°
2026-05-07 18:55 51.17775 -0.95239 2938 ft 195 kts 326°
2026-05-07 18:55 51.19037 -0.95802 2787 ft 191 kts
2026-05-07 18:56 51.20271 -0.95166 2655 ft 188 kts 27°
2026-05-07 18:56 51.21434 -0.94217 2507 ft 188 kts 30°
2026-05-07 18:56 51.22438 -0.92962 2379 ft 184 kts 53°
2026-05-07 18:56 51.23109 -0.91252 2282 ft 172 kts 64°
2026-05-07 18:57 51.23621 -0.89625 2067 ft 159 kts 66°
2026-05-07 18:57 51.24098 -0.88113 1800 ft 148 kts 65°
2026-05-07 18:57 51.24560 -0.86710 1552 ft 136 kts 65°
2026-05-07 18:57 51.24993 -0.85418 1316 ft 133 kts 65°
2026-05-07 18:58 51.25422 -0.84108 1121 ft 133 kts 65°
2026-05-07 18:58 51.25860 -0.82792 928 ft 133 kts 64°
2026-05-07 18:58 51.26297 -0.81497 715 ft 133 kts 65°
2026-05-07 18:58 51.26731 -0.80189 504 ft 133 kts 65°
2026-05-07 18:59 51.27156 -0.78903 299 ft 131 kts 64°
2026-05-07 18:59 51.27556 -0.77693 243 ft 98 kts 61°
2026-05-07 18:59 51.27742 -0.77136 243 ft 28 kts 61°
2026-05-07 18:59 51.27857 -0.76965 243 ft 20 kts 33°
2026-05-07 19:00 51.27922 -0.76897 243 ft 6 kts 32°
2026-05-07 19:00 51.27929 -0.76889 243 ft 0 kts 33°
2026-05-07 19:00 51.27938 -0.76879 243 ft 2 kts 35°
2026-05-07 19:00 51.27948 -0.76868 243 ft 3 kts 35°
2026-05-07 19:01 51.27982 -0.76830 243 ft 8 kts 34°
2026-05-07 19:01 51.28036 -0.76787 243 ft 9 kts 358°
2026-05-07 19:01 51.28073 -0.76876 243 ft 11 kts 286°
2026-05-07 19:01 51.28099 -0.77004 243 ft 12 kts 286°
2026-05-07 19:02 51.28128 -0.77149 243 ft 14 kts 288°
2026-05-07 19:02 51.28159 -0.77306 243 ft 15 kts 287°
2026-05-07 19:02 51.28190 -0.77463 243 ft 12 kts 287°
2026-05-07 19:02 51.28230 -0.77581 243 ft 13 kts 325°
2026-05-07 19:03 51.28301 -0.77586 243 ft 10 kts 30°
2026-05-07 19:03 51.28306 -0.77542 243 ft 5 kts 148°
2026-05-07 19:03 51.28286 -0.77541 243 ft 0 kts 189°